Location: Ferintosh
(52.7647°N, 112.9692°W)
Time: 21:42:10
(UTC+00:00)

A-11 Canister half - Pass Details

Date: 19 May 2024
Orbit: 1524 x 1683 km, 47.3° (Epoch: 19 June)

Event Time Altitude Azimuth Distance (km) Brightness Sun altitude
Rises 06:03:18 0° 228° (SW) 4,698 11.3 -15.0°
Reaches altitude 10° 06:06:27 10° 222° (SW) 3,732 10.8 -15.2°
Maximum altitude 06:15:18 47° 153° (SSE) 2,020 9.2 -15.6°
Drops below altitude 10° 06:24:26 10° 84° (E) 3,858 11.0 -16.0°
Sets 06:27:45 0° 79° (E) 4,867 11.6 -16.2°
